Regional Weather Roundup
Issued by NWS State College, PA

Home | Current Version | Previous Version | Text Only | Print | Product List | Glossary On
Versions: 1 2 3 4 5 6 7 8 9 10 11 12 13 14 15 16 17 18 19 20 21 22 23 24 25 26 27 28 29 30 31 32 33 34 35 36 37 38 39 40 41 42 43 44 45 46 47 48 49 50
000
ASUS41 KCTP 310310
RWRCTP

REGIONAL WEATHER ROUNDUP
NATIONAL WEATHER SERVICE STATE COLLEGE PA
1100 PM EDT WED JUL 30 2014

Note: "fair" indicates few or no clouds below 12,000 feet with no
significant weather and/or obstructions to visibility.

* = STATION THAT DOES NOT REPORT PRECIPITATION /E.G. RAIN...SNOW...ETC/
    THUNDER OR FOG.

PAZ002>004-007>009-013>016-020>023-029>032-310400-
WESTERN PENNSYLVANIA

CITY           SKY/WX    TMP DP  RH WIND       PRES   REMARKS
ERIE           PTCLDY    63  58  83 S3        30.01S
MEADVILLE      PTCLDY    61  58  90 S3        30.04S
FRANKLIN*      CLOUDY    59  55  88 S3        30.06F
NEW CASTLE     FAIR      62  57  83 CALM      30.05F
BEAVER COUNTY  NOT AVBL
BUTLER*        CLOUDY    61  55  82 S3        30.08S
PITTSBURGH INT PTCLDY    61  57  87 CALM      30.06S
PITTSBURGH     MOCLDY    59  56  89 S7        30.06S
INDIANA*       CLOUDY    61  59  94 CALM      30.12F
LATROBE        PTCLDY    61  61 100 CALM      30.09R
WASHINGTON CO* MOCLDY    55  55 100 CALM      30.08S
$$

PAZ004>006-010>012-017>019-024>028-033>037-041-042-045-046-049>053-310400-
CENTRAL PENNSYLVANIA

CITY           SKY/WX    TMP DP  RH WIND       PRES   REMARKS
BRADFORD       MOCLDY    56  54  93 S3        30.07S
DUBOIS         MOCLDY    59  56  89 SW3       30.07R
CLEARFIELD     MOCLDY    58  57  97 CALM      30.08S FOG
JOHNSTOWN      LGT RAIN  57  54  89 SW6       30.10S
ALTOONA        CLOUDY    61  59  93 S5        30.09F
STATE COLLEGE  CLOUDY    57  57  99 CALM      30.07S FOG
WILLIAMSPORT   CLOUDY    61  58  90 CALM      30.06S
SELINSGROVE    CLOUDY    61  60  97 CALM      30.08F
FT INDIANTOWN  LGT RAIN  64  59  82 CALM      30.06F
CAPITAL CITY   CLOUDY    67  56  67 NW8       30.07S
HARRISBURG     CLOUDY    68  55  63 N5        30.06S
YORK           MOCLDY    61  56  83 S3        30.05F
$$

PAZ038>040-043-044-047-048-054-055-060>062-067>071-310400-
EASTERN PENNSYLVANIA

CITY           SKY/WX    TMP DP  RH WIND       PRES   REMARKS
SCRANTON       LGT RAIN  64  58  80 SW5       30.06S
MOUNT POCONO   PTCLDY    60  52  74 W3        30.09S
ALLENTOWN      PTCLDY    63  55  75 CALM      30.05F
QUAKERTOWN*    CLEAR     59  57  94 CALM      30.07F
READING        MOCLDY    68  56  65 NW5       30.06R
LANCASTER      PTCLDY    65  55  70 N3        30.06S
COATESVILLE    CLEAR     64  55  72 CALM      30.08S
POTTSTOWN      CLEAR     63  56  78 CALM      30.07F
BLUE BELL      CLEAR     63  59  88 CALM      30.06S
DOYLESTOWN     CLEAR     62  57  83 CALM      30.06R
WILLOW GROVE   NOT AVBL
NORTH PHILA    CLEAR     70  53  54 CALM      30.07S
PHILADELPHIA   CLEAR     73  54  51 SW9       30.06S
$$



USA.gov is the U.S. government's official web portal to all federal, state and local government web resources and services.